Location: Bonnesvalyn
(49.1218°N, 3.3177°E)
Time: 20:09:14
(UTC+00:00)

Cosmos-2242 - Pass Details

Date: 09 February 2023
Orbit: 587 x 612 km, 82.5° (Epoch: 20 March)

Event Time Altitude Azimuth Distance (km) Brightness Sun altitude
Rises 18:17:19 0° 355° (N) 2,830 6.4 -13.6°
Reaches altitude 10° 18:19:36 10° 2° (N) 1,925 5.5 -14.0°
Maximum altitude 18:23:41 44° 75° (ENE) 818 3.2 -14.7°
Drops below altitude 10° 18:27:44 10° 149° (SSE) 1,915 5.3 -15.3°
Sets 18:30:00 0° 155° (SSE) 2,813 6.2 -15.7°
